{"data":{"norad_id":65966,"epoch":"2026-09-20T10:32:28.595904Z","epoch_age_seconds":145687,"freshness":"FRESH","line1":"1 65966U 25228V   26263.43921986 -.00001648  00000+0 -18724-3 0  9997","line2":"2 65966  51.9008 199.5515 0000840  91.5583 268.5476 14.79927445 52349","mean_motion":14.79927445,"eccentricity":8.4e-5,"inclination_deg":51.9008,"raan_deg":199.5515,"arg_perigee_deg":91.5583,"mean_anomaly_deg":268.5476,"bstar":-0.00018724,"rev_number":5234,"period_min":97.302067399662,"perigee_km":628.96451901445,"apogee_km":630.14181096217,"semimajor_km":7007.6901649883,"source":"CELESTRAK","updated_at":"2026-09-21T09:00:15.683666Z"}}